This is the latest recevied weather packets stored in our database for station/object CQ0XPG-11. If no packets are shown the sender has not sent any weather packets the latest 10 day(s).
| Time | Temp. | Humidity | Pressure | Rain* | Wind** | Luminosity | Snow |
|---|---|---|---|---|---|---|---|
| 1777563884 | 17.22° C | 75% | 1007.4 hPa | 0.51 mm | - | - | - |
| 1777563560 | 17.22° C | 78% | 1007.5 hPa | 0.51 mm | - | - | - |
| 1777563272 | 17.22° C | 77% | 1007.6 hPa | 0.51 mm | - | - | - |
| 1777562965 | 17.22° C | 79% | 1007.5 hPa | 0.51 mm | - | - | - |
| 1777562672 | 17.78° C | 77% | 1007.5 hPa | 0.51 mm | - | - | - |
| 1777562347 | 17.78° C | 79% | 1007.6 hPa | 0.51 mm | - | - | - |
| 1777561734 | 17.22° C | 82% | 1007.6 hPa | 0.51 mm | - | - | - |
| 1777561155 | 17.22° C | 84% | 1007.7 hPa | 0.51 mm | - | - | - |
| 1777560837 | 16.67° C | 88% | 1007.8 hPa | 0.51 mm | - | - | - |
| 1777560528 | 16.67° C | 96% | 1007.9 hPa | 0.51 mm | - | - | - |
| 1777560252 | 16.67° C | 99% | 1007.8 hPa | 0.51 mm | - | - | - |
| 1777559922 | 16.11° C | 95% | 1007.9 hPa | 0.51 mm | - | - | - |
| 1777559627 | 16.11° C | 98% | 1008 hPa | 0.51 mm | - | - | - |
| 1777559345 | 16.11° C | 96% | 1008.1 hPa | 0.51 mm | - | - | - |
| 1777559033 | 16.11° C | 100% | 1008 hPa | 0.51 mm | - | - | - |
| 1777558713 | 16.11° C | 100% | 1008 hPa | 0.51 mm | - | - | - |
| 1777558433 | 16.11° C | 100% | 1008.1 hPa | 0.51 mm | - | - | - |
| 1777557811 | 15.56° C | 100% | 1008.1 hPa | 0.25 mm | - | - | - |
| 1777557204 | 15.56° C | 100% | 1008.1 hPa | 0.25 mm | - | - | - |
| 1777556890 | 15.56° C | 100% | 1008.2 hPa | 0.25 mm | - | - | - |
| 1777556278 | 15.56° C | 100% | 1008.2 hPa | 0.25 mm | - | - | - |
| 1777555993 | 15.56° C | 100% | 1008.2 hPa | 0.25 mm | - | - | - |
| 1777555388 | 15.56° C | 100% | 1008.2 hPa | 0.25 mm | - | - | - |
| 1777555084 | 15° C | 100% | 1008.2 hPa | 0.25 mm | - | - | - |
| 1777554794 | 15° C | 100% | 1008.2 hPa | 0.25 mm | - | - | - |
* Rain since midnight (hover to see other rain measurements)
** Current wind speed in m/s (hover to see current wind gust speed)